Location: Chomutov
(50.4500°N, 13.4333°E)
Time: 02:03:38
(UTC+02:00)

FO-29 - Pass Details

Date: 28 September 2021
Orbit: 800 x 1321 km, 98.6° (Epoch: 27 October)

Event Time Altitude Azimuth Distance (km) Brightness Sun altitude
Exits shadow 21:55:33 39° 185° (S) 1,854 10.6 -28.6°
Maximum altitude 21:58:45 71° 258° (WSW) 1,384 10.2 -29.0°
Drops below altitude 10° 22:06:40 10° 342° (NNW) 3,350 12.9 -30.0°
Sets 22:09:24 0° 345° (NNW) 4,301 13.6 -30.4°
